Weather Service Report


549 
ASUS42 KTBW 250017
RWRFL 
FLORIDA REGIONAL WEATHER ROUNDUP
NATIONAL WEATHER SERVICE TAMPA BAY RUSKIN FL
800 PM EDT WED MAY 24 2017

NOTE: "FAIR" INDICATES FEW OR NO CLOUDS BELOW 12,000 FEET WITH NO
SIGNIFICANT WEATHER AND/OR OBSTRUCTIONS TO VISIBILITY.

FLZ001>010-012>015-112-114-115-250100-
PANHANDLE FLORIDA
  
CITY           SKY/WX    TMP DP  RH WIND       PRES   REMARKS
PENSACOLA      CLEAR     76  50  40 W12       29.63R                  
PENSACOLA NAS  PTCLDY    74  50  42 W7        29.63R                  
MILTON NAS     PTCLDY    72  51  47 W10       29.62R                  
CRESTVIEW      CLEAR     74  49  41 W10       29.62R                  
DUKE FIELD     PTCLDY    75  50  41 W10       29.61R                  
VALPARAISO     PTCLDY    77  46  33 W17G23    29.61R                  
MARY ESTHER    PTCLDY    75  45  33 W7        29.61R                  
PANAMA CITY    FAIR      76  57  51 SW18G26   29.57R                  
TYNDALL AFB    CLEAR     75  61  62 W20G31    29.61R                  
APALACHICOLA   CLOUDY    75  67  76 W14G25    29.61R                  

STATION/POSITION SKY/WX   TEMP    WIND        PRES    WAVE   SWELL
                          AIR SEA DIR/SP/G            HT/PER HT/PER
                          (F)     (DEG/KT/KT) (MB)    (FT/S) (FT/S)
30.1N   87.6W              75 78  290/ 17/ 21 1003.0    4/ 7   2/ 7
29.2N   88.2W              74 78  270/ 16/ 21 1005.3S   4/ 5
28.8N   86.0W              75 77  270/ 21/ 25 1003.8R   7/ 7
PANAMA CITY BEAC           76 80  280/ 27/ 31 1002.4R
TOWER C                    75     270/ 25/ 28 1003.7R
28.5N   84.5W              76 77  230/ 25/ 33 1003.0   10/ 8

$$
FLZ011-016>038-118-127-128-134-139-239-250100-
NORTH FLORIDA
  
CITY           SKY/WX    TMP DP  RH WIND       PRES   REMARKS
MARIANNA       CLEAR     77  62  59 SW15G22   29.54R                  
TALLAHASSEE    CLOUDY    76  69  79 W12       29.57S                  
PERRY          CLOUDY    75  70  85 SW8G16    29.61S                  
CROSS CITY     CLOUDY    72  70  94 S7        29.63S                  
LAKE CITY      CLOUDY    68  68 100 W10       29.63R                  
GAINESVILLE    LGT RAIN  72  68  87 SW13      29.64R                  
WILLISTON      PTCLDY    75  72  88 SW10G17   29.65S                  
PALATKA        CLOUDY    73  73 100 SW6       29.65S                  
MAYPORT NAS    CLOUDY    74  70  87 SW22G32   29.59R                  
JACKSONVILLE   CLOUDY    73  70  90 SW15      29.59R                  
JAX NAS        CLOUDY    74  68  81 S15G24    29.61R                  
FERNANDINA BEA FAIR      77  70  78 SW16G25   29.57R                  
ST AUGUSTINE   CLOUDY    73  70  90 S9        29.64R                  
PALM COAST     FAIR      72  71  97 SW9       29.66R                  

STATION/POSITION SKY/WX   TEMP    WIND        PRES    WAVE   SWELL
                          AIR SEA DIR/SP/G            HT/PER HT/PER
                          (F)     (DEG/KT/KT) (MB)    (FT/S) (FT/S)
SHELL POINT      NOT AVBL
KEATON BEACH               74     220/ 23/ 26 1002.6R
CEDAR KEY                  77     250/ 20/ 27 1003.9R
FERNANDINA                 75 79  190/  5/ 11 1001.9R
30.7N   81.3W                 78                N/A     4/ 5
MAYPORT                    74 78  210/ 14/ 19 1002.1R
31.4N   80.9W              76 78  210/ 21/ 25 1000.6    5/ 5
ST AUGUSTINE               73 77  200/ 11/ 14 1004.2R

$$
FLZ040-043>046-052-053-057-058-063-144-250100-
INTERIOR CENTRAL FLORIDA
  
CITY           SKY/WX    TMP DP  RH WIND       PRES   REMARKS
OCALA          CLOUDY    73  72  94 SW9       29.66S                  
THE VILLAGES     N/A     75  73  94 E8        29.58S                  
LEESBURG       PTCLDY    74  70  87 SW9       29.68R                  
SANFORD        PTCLDY    73  69  87 SW9       29.68R                  
ORLANDO INTL   CLOUDY    70  70 100 S13       29.71R                  
KISSIMMEE      CLOUDY    73  71  93 SW9       29.72R                  
WINTER HAVEN   CLOUDY    74  69  85 SW13      29.74R                  
LAKELAND       MOCLDY    73  72  94 SW15      29.73R                  
BARTOW         CLOUDY    73  72  94 SW14G20   29.73S                  
OKEECHOBEE     LGT RAIN  70  68  94 S13       29.81R                  

$$
FLZ041-047-054-059-064-141-147-250100-
EAST CENTRAL FLORIDA
  
CITY           SKY/WX    TMP DP  RH WIND       PRES   REMARKS
DAYTONA BEACH  CLOUDY    72  70  93 S8        29.67R                  
DELAND         MOCLDY    73  68  83 S9        29.67R                  
NEW SMYRNA BEA RAIN      72  68  88 SW12      29.67F                  
JFK SPACE CTR  CLOUDY   N/A N/A N/A SW10        N/A                   
TITUSVILLE     PTCLDY    72  70  94 S9        29.70                   
CAPE CANAVERAL CLOUDY    73  69  87 SW13      29.68R                  
PATRICK AFB    MOCLDY    73  71  92 SW18      29.71R                  
MELBOURNE      CLOUDY    73  70  90 S14       29.73R                  
VERO BEACH     CLOUDY    73  71  93 SW13      29.77R                  
FT PIERCE      LGT RAIN  73  70  90 S9        29.78R                  
STUART         LGT RAIN  73  73 100 SW16G23   29.79F                  

STATION/POSITION SKY/WX   TEMP    WIND        PRES    WAVE   SWELL
                          AIR SEA DIR/SP/G            HT/PER HT/PER
                          (F)     (DEG/KT/KT) (MB)    (FT/S) (FT/S)
28.5N   80.2W              76 78  210/ 16/ 19 1005.6F   5/ 5   2/ 8
28.9N   78.5W              81 79  190/ 25/ 31 1006.1R   9/ 7
TRIDENT PIER               74 82  200/ 10/ 14 1007.1S
28.4N   80.5W                 78                N/A     3/ 5
27.5N   80.2W                 71                N/A     4/ 5

$$
FLZ050-056-061-142-242-148-248-149-249-151-251-155-255-
160-260-250100-
WEST CENTRAL FLORIDA
  
CITY           SKY/WX    TMP DP  RH WIND       PRES   REMARKS
CRYSTAL RIVER  CLOUDY    77  70  78 SW12G21   29.67S                  
INVERNESS      RAIN      73  72  94 SW6       29.68R                  
BROOKSVILLE    RAIN      75  70  84 SW14      29.71R                  
CLEARWATER AIR CLOUDY    75  70  83 SW14G24   29.71R                  
ST PETE CLEARW CLOUDY    77  70  79 SW17G26   29.72R                  
TAMPA INTL     CLOUDY    77  70  79 SW20G28   29.72R                  
TAMPA EXEC     CLOUDY    77  70  78 SW10G20   29.73R                  
PLANT CITY     CLOUDY    75  72  88 SW10G16   29.74R                  
MACDILL AFB    MOCLDY    76  73  90 SW15G23   29.72R                  
PETER O KNIGHT CLOUDY    79  72  78 SW10G21   29.73S                  
ST PETERSBURG  CLOUDY    78  71  79 W13G24    29.70R                  
SARASOTA       CLOUDY    77  71  82 SW17G25   29.73R                  
VENICE         MOCLDY    77  72  83 SW21G29   29.77R                  

STATION/POSITION SKY/WX   TEMP    WIND        PRES    WAVE   SWELL
                          AIR SEA DIR/SP/G            HT/PER HT/PER
                          (F)     (DEG/KT/KT) (MB)    (FT/S) (FT/S)
27.3N   84.2W                 78                N/A     7/ 7
CLEARWATER BEACH           78 81  230/ 29/ 32 1006.0R
MIDDLE TAMPA BAY           77     240/ 21/ 28 1006.7R
VENICE                     78 83  230/ 19/ 21 1007.2R

$$
FLZ066-069-070-075>078-162-262-165-265-250100-
SOUTHWEST FLORIDA AND KEYS
  
CITY           SKY/WX    TMP DP  RH WIND       PRES   REMARKS
PUNTA GORDA    CLOUDY    77  70  79 SW17G29   29.79R                  
FT MYERS       CLOUDY    77  71  82 W16G24    29.79R                  
SOUTHWEST INTL CLOUDY    74  69  85 SW13        N/A                   
NAPLES         CLOUDY    78  51  38 SW15G24   29.81R                  
MARCO ISLAND   CLOUDY    73  68  83 SW13G22   29.81S                  
IMMOKALEE      FAIR      70  68  94 S6        29.82R                  
MARATHON       PTCLDY    86  80  82 SW6       29.85R HX 101           
KEY WEST NAS   HVY RAIN  74  73  97 NW14G26   29.87S FOG              
KEY WEST INTL  HVY RAIN  77  75  93 NW13G23   29.88R FOG              

STATION/POSITION SKY/WX   TEMP    WIND        PRES    WAVE   SWELL
                          AIR SEA DIR/SP/G            HT/PER HT/PER
                          (F)     (DEG/KT/KT) (MB)    (FT/S) (FT/S)
NAPLES                        84  230/ 20/ 22 1009.3R
DRY TORTUGAS               79     270/ 13/ 14 1009.4F
SAND KEY                   76     320/ 21/ 29 1011.8R
LONG KEY                   83 85  190/ 14/ 16 1009.9F

$$
FLZ067-068-071>074-168-172>174-250100-
SOUTHEAST FLORIDA 
  
CITY           SKY/WX    TMP DP  RH WIND       PRES   REMARKS
W PALM BEACH   CLOUDY    75  68  78 SW12      29.81F THUNDER          
BOCA RATON     MOCLDY    75  72  88 W7        29.81R THUNDER          
FT LAUDER-EXEC TSTM      84  72  67 SE3       29.78F                  
FT LAUDERDALE  LGT RAIN  82  77  84 S18G33    29.80R                  
POMPANO BEACH  CLOUDY    82  77  84 VRB3      29.80S                  
PEMBROKE PINES LGT RAIN  84  75  74 S13G21    29.81R                  
OPA LOCKA      LGT RAIN  82  78  88 S15       29.81R                  
MIAMI          CLOUDY    84  76  76 S12       29.81R                  
WEST KENDALL   CLOUDY    83  73  72 S10       29.81R                  
HOMESTEAD      CLOUDY    80  76  90 S13       29.82R                  

STATION/POSITION SKY/WX   TEMP    WIND        PRES    WAVE   SWELL
                          AIR SEA DIR/SP/G            HT/PER HT/PER
                          (F)     (DEG/KT/KT) (MB)    (FT/S) (FT/S)
PORT EVERGLADES            83     170/ 14/ 20 1009.2R
VIRGINIA KEY                      180/ 14/ 22 1009.0R
LAKE WORTH                 75 82              1010.2F
FOWEY ROCKS                81 81  180/ 26/ 28 1010.3R
SETTLEMENT POINT           82     190/ 19/ 21 1009.7R

$$

  

Return to Home page


Western Regional Climate Center, wrcc@dri.edu